EN

Hourly Weather Acate

Today, 27 November, Friday

Time Temperature Precipitation Wind Pressure Humidity
00:00 +12°C° 0 mm 3 mps 753 mmHg 83%
01:00 +11°C° 0 mm 3 mps 753 mmHg 84%
02:00 +11°C° 0 mm 3 mps 752 mmHg 84%
03:00 +11°C° 0 mm 3 mps 752 mmHg 84%
04:00 +11°C° 0 mm 3 mps 752 mmHg 84%
05:00 +11°C° 0 mm 3 mps 752 mmHg 84%
06:00 +11°C° 0 mm 3 mps 752 mmHg 85%
07:00 +11°C° 0 mm 4 mps 752 mmHg 85%
08:00 +12°C° 0 mm 4 mps 753 mmHg 79%
09:00 +14°C° 0 mm 4 mps 753 mmHg 74%
10:00 +16°C° 0 mm 5 mps 753 mmHg 68%
11:00 +16°C° 0 mm 5 mps 752 mmHg 65%
12:00 +17°C° 0 mm 5 mps 752 mmHg 62%
13:00 +17°C° 0 mm 5 mps 752 mmHg 58%
14:00 +17°C° 0 mm 5 mps 752 mmHg 61%
15:00 +16°C° 0 mm 5 mps 751 mmHg 64%
16:00 +15°C° 0 mm 5 mps 751 mmHg 67%
17:00 +14°C° 0 mm 5 mps 751 mmHg 71%
18:00 +13°C° 0 mm 5 mps 751 mmHg 74%
19:00 +12°C° 0 mm 5 mps 751 mmHg 78%
20:00 +12°C° 0 mm 5 mps 751 mmHg 78%
21:00 +12°C° 0 mm 5 mps 751 mmHg 78%
22:00 +12°C° 0 mm 5 mps 751 mmHg 78%
23:00 +12°C° 0 mm 5 mps 751 mmHg 78%

Tomorrow, 28 November, Saturday

Time Temperature Precipitation Wind Pressure Humidity
00:00 +12°C° 0 mm 5 mps 750 mmHg 78%
01:00 +13°C° 0 mm 5 mps 750 mmHg 78%
02:00 +13°C° 0 mm 6 mps 750 mmHg 79%
03:00 +13°C° 0 mm 6 mps 749 mmHg 80%
04:00 +13°C° 0 mm 6 mps 749 mmHg 82%
05:00 +12°C° 0.2 mm 7 mps 749 mmHg 84%
06:00 +12°C° 0.2 mm 7 mps 748 mmHg 86%
07:00 +12°C° 0.2 mm 7 mps 748 mmHg 88%
08:00 +13°C° 0.5 mm 8 mps 748 mmHg 85%
09:00 +16°C° 0.5 mm 9 mps 748 mmHg 82%
10:00 +17°C° 0.5 mm 10 mps 748 mmHg 79%
11:00 +17°C° 0.7 mm 10 mps 747 mmHg 79%
12:00 +17°C° 0.7 mm 11 mps 746 mmHg 78%
13:00 +17°C° 0.7 mm 11 mps 745 mmHg 78%
14:00 +17°C° 1.4 mm 11 mps 745 mmHg 79%
15:00 +17°C° 1.4 mm 11 mps 744 mmHg 80%
16:00 +16°C° 1.4 mm 10 mps 744 mmHg 81%
17:00 +16°C° 1.8 mm 10 mps 744 mmHg 81%
18:00 +16°C° 1.8 mm 9 mps 743 mmHg 80%
19:00 +16°C° 1.8 mm 8 mps 743 mmHg 80%
20:00 +16°C° 1.1 mm 7 mps 743 mmHg 80%
21:00 +15°C° 1.1 mm 6 mps 743 mmHg 80%
22:00 +15°C° 1.1 mm 6 mps 743 mmHg 80%
23:00 +14°C° 0.7 mm 5 mps 743 mmHg 79%

Day after tomorrow, 29 November, Sunday

Time Temperature Precipitation Wind Pressure Humidity
00:00 +14°C° 0.7 mm 5 mps 743 mmHg 78%
01:00 +14°C° 0.7 mm 5 mps 743 mmHg 77%
02:00 +13°C° 0.1 mm 5 mps 743 mmHg 77%
03:00 +13°C° 0.1 mm 4 mps 742 mmHg 77%
04:00 +13°C° 0.1 mm 4 mps 742 mmHg 77%
05:00 +13°C° 0.1 mm 4 mps 742 mmHg 76%
06:00 +13°C° 0.1 mm 4 mps 742 mmHg 76%
07:00 +13°C° 0.1 mm 4 mps 742 mmHg 76%
08:00 +14°C° 0.7 mm 5 mps 742 mmHg 74%
09:00 +14°C° 0.7 mm 6 mps 742 mmHg 73%
10:00 +15°C° 0.7 mm 6 mps 742 mmHg 72%
11:00 +15°C° 2.8 mm 5 mps 742 mmHg 77%
12:00 +14°C° 2.8 mm 5 mps 741 mmHg 83%
13:00 +14°C° 2.8 mm 4 mps 741 mmHg 88%
14:00 +14°C° 1 mm 3 mps 740 mmHg 86%
15:00 +14°C° 1 mm 3 mps 740 mmHg 84%
16:00 +15°C° 1 mm 2 mps 740 mmHg 82%
17:00 +14°C° 0 mm 2 mps 741 mmHg 85%
18:00 +13°C° 0 mm 2 mps 741 mmHg 87%
19:00 +12°C° 0 mm 2 mps 741 mmHg 90%
20:00 +11°C° 0 mm 3 mps 742 mmHg 89%
21:00 +11°C° 0 mm 3 mps 742 mmHg 88%
22:00 +11°C° 0 mm 3 mps 743 mmHg 87%
23:00 +11°C° 0 mm 3 mps 743 mmHg 88%

30 November, Monday

Time Temperature Precipitation Wind Pressure Humidity
00:00 +11°C° 0 mm 4 mps 744 mmHg 88%
01:00 +11°C° 0 mm 4 mps 744 mmHg 88%
02:00 +11°C° 0 mm 4 mps 745 mmHg 88%
03:00 +11°C° 0 mm 4 mps 745 mmHg 88%
04:00 +11°C° 0 mm 4 mps 745 mmHg 87%
05:00 +11°C° 0 mm 4 mps 746 mmHg 87%
06:00 +11°C° 0 mm 4 mps 746 mmHg 87%
07:00 +11°C° 0 mm 4 mps 747 mmHg 87%
08:00 +13°C° 0 mm 4 mps 747 mmHg 80%
09:00 +15°C° 0 mm 4 mps 748 mmHg 73%
10:00 +18°C° 0 mm 4 mps 749 mmHg 66%
11:00 +18°C° 0 mm 4 mps 749 mmHg 64%
12:00 +19°C° 0 mm 4 mps 749 mmHg 62%
13:00 +19°C° 0 mm 3 mps 749 mmHg 60%
14:00 +19°C° 0 mm 3 mps 749 mmHg 64%
15:00 +18°C° 0 mm 3 mps 750 mmHg 68%
16:00 +17°C° 0 mm 3 mps 750 mmHg 72%
17:00 +16°C° 0 mm 3 mps 750 mmHg 76%
18:00 +14°C° 0 mm 3 mps 751 mmHg 81%
19:00 +14°C° 0 mm 2 mps 751 mmHg 85%
20:00 +14°C° 0 mm 2 mps 751 mmHg 85%
21:00 +14°C° 0 mm 2 mps 752 mmHg 85%
22:00 +13°C° 0 mm 2 mps 752 mmHg 85%
23:00 +13°C° 0 mm 2 mps 752 mmHg 85%

1 December, Tuesday

Time Temperature Precipitation Wind Pressure Humidity
00:00 +13°C° 0 mm 2 mps 752 mmHg 85%
01:00 +13°C° 0 mm 1 mps 752 mmHg 85%
02:00 +13°C° 0 mm 1 mps 752 mmHg 85%
03:00 +13°C° 0 mm 1 mps 752 mmHg 85%
04:00 +12°C° 0 mm 1 mps 751 mmHg 86%
05:00 +12°C° 0 mm 1 mps 751 mmHg 87%
06:00 +12°C° 0 mm 1 mps 751 mmHg 87%
07:00 +12°C° 0 mm 1 mps 751 mmHg 88%
08:00 +14°C° 0 mm 1 mps 751 mmHg 83%
09:00 +15°C° 0 mm 2 mps 752 mmHg 78%
10:00 +17°C° 0 mm 2 mps 752 mmHg 73%
11:00 +17°C° 0 mm 2 mps 751 mmHg 70%
12:00 +17°C° 0 mm 3 mps 751 mmHg 66%
13:00 +18°C° 0 mm 4 mps 750 mmHg 63%
14:00 +17°C° 0 mm 4 mps 750 mmHg 67%
15:00 +17°C° 0 mm 4 mps 750 mmHg 70%
16:00 +15°C° 0 mm 4 mps 750 mmHg 73%
17:00 +14°C° 0 mm 4 mps 750 mmHg 77%
18:00 +13°C° 0 mm 4 mps 750 mmHg 82%
19:00 +12°C° 0 mm 4 mps 749 mmHg 86%
20:00 +12°C° 0 mm 3 mps 749 mmHg 86%
21:00 +11°C° 0 mm 3 mps 749 mmHg 86%
22:00 +11°C° 0 mm 3 mps 749 mmHg 87%
23:00 +11°C° 0 mm 3 mps 749 mmHg 87%

2 December, Wednesday

Time Temperature Precipitation Wind Pressure Humidity
00:00 +11°C° 0 mm 3 mps 749 mmHg 88%
01:00 +11°C° 0 mm 3 mps 749 mmHg 89%
02:00 +11°C° 0 mm 3 mps 748 mmHg 89%
03:00 +11°C° 0 mm 3 mps 748 mmHg 89%
04:00 +11°C° 0 mm 3 mps 747 mmHg 89%
05:00 +11°C° 0 mm 3 mps 747 mmHg 89%
06:00 +12°C° 0 mm 2 mps 747 mmHg 88%
07:00 +12°C° 0 mm 2 mps 747 mmHg 88%
08:00 +14°C° 0.3 mm 2 mps 747 mmHg 84%
09:00 +14°C° 0.3 mm 3 mps 747 mmHg 79%
10:00 +17°C° 0.3 mm 3 mps 746 mmHg 75%
11:00 +17°C° 0.3 mm 4 mps 746 mmHg 71%
12:00 +17°C° 0.3 mm 5 mps 745 mmHg 66%
13:00 +19°C° 0.3 mm 5 mps 745 mmHg 61%
14:00 +17°C° 0.1 mm 5 mps 744 mmHg 64%
15:00 +16°C° 0.1 mm 5 mps 744 mmHg 68%
16:00 +15°C° 0.1 mm 5 mps 744 mmHg 71%
17:00 +14°C° 0 mm 5 mps 744 mmHg 76%
18:00 +13°C° 0 mm 5 mps 744 mmHg 80%
19:00 +12°C° 0 mm 5 mps 744 mmHg 84%
20:00 +12°C° 0 mm 5 mps 744 mmHg 84%
21:00 +12°C° 0 mm 5 mps 744 mmHg 84%
22:00 +12°C° 0 mm 4 mps 745 mmHg 84%
23:00 +11°C° 0 mm 4 mps 744 mmHg 85%
Show more